Location: Dziekanowice
(50.3533°N, 20.3878°E)
Time: 04:53:08
(UTC+01:00)

ISS - Visible Passes

Search period start: 24 November 2017 00:00
Search period end: 04 December 2017 00:00
Orbit: 402 x 407 km, 51.6° (Epoch: 24 November)

Date Brightness Start Highest point End Pass type
(mag) Time Alt. Az. Time Alt. Az. Time Alt. Az.
28 Nov -1.3 18:16:55 10° SSW 18:17:50 16° SSW 18:17:50 16° SSW visible
29 Nov -2.1 17:25:08 10° SSW 17:27:40 21° SE 17:27:45 21° SE visible
30 Nov -1.5 16:33:54 10° SSE 16:35:31 13° SE 16:37:08 10° ESE visible
30 Nov -2.3 18:08:13 10° SW 18:10:15 32° SW 18:10:15 32° SW visible
01 Dec -2.9 17:16:05 10° SW 17:19:08 36° SSE 17:20:01 30° ESE visible
01 Dec -0.5 18:52:11 10° W 18:52:40 14° W 18:52:40 14° W visible
02 Dec -2.2 16:24:10 10° SSW 16:26:52 24° SE 16:29:35 10° E visible
02 Dec -3.1 17:59:46 10° WSW 18:02:23 54° WSW 18:02:23 54° WSW visible
03 Dec -3.6 17:07:24 10° WSW 17:10:39 62° SSE 17:12:04 30° E visible
03 Dec -0.8 18:43:53 10° W 18:44:42 16° W 18:44:42 16° W visible
